Guantánamo Bay Naval Air Station (NBW/MUGM)




Flight Aircraft Arriving
CMB7584 B752
KNGU - Norfolk Naval Station (Chambers Field)
United StatesVirginia Norfolk, Virginia
Flight Aircraft Departing
CMB7583 B752
KNGU - Norfolk Naval Station (Chambers Field)
United StatesVirginia Norfolk, Virginia
Airport Information
Location: Guantanamo, CU
Coordinates: 19.9065 / -75.2071
Elevation:
Time Offset:
Local Time:
UTC Time:
Jet A Price: $/lbs

Current Weather
METAR: MUGM 270851Z 34007KT 10SM FEW030 22/18 A3004 RMK AO2 SLP171 T02220178 56011 $
TAF: TAF MUGM 2707/2807 32009KT 9999 FEW030 QNH3000INS BECMG 2711/2713 08020G30KT 9999 FEW030 FEW100 QNH3000INS BECMG 2722/2800 VRB06KT 9999 FEW030 FEW100 QNH2997INS BECMG 2805/2807 08010KT 9999 FEW040 FEW100 QNH3003INS T22/2710Z T29/2719Z FN00237

Recent Arrivals
Date Flight Type Depart
12/22/2019 CMB7583 B752 Norfolk Naval Station (Chambers Field) (KNGU)
01/13/2019 CMB803 B752 Jacksonville Naval Air Station (KNIP)
09/25/2018 CPX803 B752 Jacksonville Naval Air Station (KNIP)
Recent Departures
Date Flight Type Arrive
12/24/2019 CMB7584 B752 Norfolk Naval Station (Chambers Field) (KNGU)
01/14/2019 CPX804 B752 Jacksonville Naval Air Station (KNIP)
09/28/2018 CPX804 B752 Jacksonville Naval Air Station (KNIP)